owner,sensor,date,latitude,longitude,relative_humidity,qcFlag 
COAPS,ioos:station:COAPS:N7:3,2008-09-29T16:44:00Z,29.6619,-84.3731,66.66,1111122 
COAPS,ioos:station:COAPS:N7:3,2008-09-29T16:45:00Z,29.6619,-84.3731,67.98,1111122 
COAPS,ioos:station:COAPS:N7:3,2008-09-29T16:46:00Z,29.6619,-84.3731,68.28,1111122 
COAPS,ioos:station:COAPS:N7:3,2008-09-29T16:47:00Z,29.6619,-84.3731,67.03,1111122 
COAPS,ioos:station:COAPS:N7:3,2008-09-29T16:48:00Z,29.6619,-84.3731,67.45,1111122 
COAPS,ioos:station:COAPS:N7:3,2008-09-29T16:49:00Z,29.6619,-84.3731,70.65,1111122 
COAPS,ioos:station:COAPS:N7:3,2008-09-29T16:50:00Z,29.6619,-84.3731,69.99,1111122 
COAPS,ioos:station:COAPS:N7:3,2008-09-29T16:51:00Z,29.6619,-84.3731,69.73,1111122 
COAPS,ioos:station:COAPS:N7:3,2008-09-29T16:52:00Z,29.6619,-84.3731,68.41,1111122 
COAPS,ioos:station:COAPS:N7:3,2008-09-29T16:53:00Z,29.6619,-84.3731,68.87,1111122 
COAPS,ioos:station:COAPS:N7:3,2008-09-29T16:54:00Z,29.6619,-84.3731,69.31,1111122 
COAPS,ioos:station:COAPS:N7:3,2008-09-29T16:55:00Z,29.6619,-84.3731,68.37,1111122 
COAPS,ioos:station:COAPS:N7:3,2008-09-29T16:56:00Z,29.6619,-84.3731,68.34,1111122 
COAPS,ioos:station:COAPS:N7:3,2008-09-29T16:57:00Z,29.6619,-84.3731,68.48,1111122 
COAPS,ioos:station:COAPS:N7:3,2008-09-29T16:58:00Z,29.6619,-84.3731,67.95,1111122 
COAPS,ioos:station:COAPS:N7:3,2008-09-29T16:59:00Z,29.6619,-84.3731,70.67,1111122 
COAPS,ioos:station:COAPS:N7:3,2008-09-29T17:00:00Z,29.6619,-84.3731,67.47,1111122 
COAPS,ioos:station:COAPS:N7:3,2008-09-29T17:01:00Z,29.6619,-84.3731,68.98,1111122 
COAPS,ioos:station:COAPS:N7:3,2008-09-29T17:02:00Z,29.6619,-84.3731,69.11,1111122 
COAPS,ioos:station:COAPS:N7:3,2008-09-29T17:03:00Z,29.6619,-84.3731,68.47,1111122 
COAPS,ioos:station:COAPS:N7:3,2008-09-29T17:04:00Z,29.6619,-84.3731,66.82,1111122 
COAPS,ioos:station:COAPS:N7:3,2008-09-29T17:05:00Z,29.6619,-84.3731,66.34,1111122 
COAPS,ioos:station:COAPS:N7:3,2008-09-29T17:06:00Z,29.6619,-84.3731,67.25,1111122 
COAPS,ioos:station:COAPS:N7:3,2008-09-29T17:07:00Z,29.6619,-84.3731,66.83,1111122 
COAPS,ioos:station:COAPS:N7:3,2008-09-29T17:08:00Z,29.6619,-84.3731,65.76,1111122 
COAPS,ioos:station:COAPS:N7:3,2008-09-29T17:09:00Z,29.6619,-84.3731,65.62,1111122 
COAPS,ioos:station:COAPS:N7:3,2008-09-29T17:10:00Z,29.6619,-84.3731,66.79,1111122 
COAPS,ioos:station:COAPS:N7:3,2008-09-29T17:11:00Z,29.6619,-84.3731,66.62,1111122 
COAPS,ioos:station:COAPS:N7:3,2008-09-29T17:12:00Z,29.6619,-84.3731,67.06,1111122 
COAPS,ioos:station:COAPS:N7:3,2008-09-29T17:13:00Z,29.6619,-84.3731,66.03,1111122 
COAPS,ioos:station:COAPS:N7:3,2008-09-29T17:14:00Z,29.6619,-84.3731,64.95,1111122 
COAPS,ioos:station:COAPS:N7:3,2008-09-29T17:15:00Z,29.6619,-84.3731,66.2,1111122 
COAPS,ioos:station:COAPS:N7:3,2008-09-29T17:16:00Z,29.6619,-84.3731,65.24,1111122 
COAPS,ioos:station:COAPS:N7:3,2008-09-29T17:17:00Z,29.6619,-84.3731,65.59,1111122 
COAPS,ioos:station:COAPS:N7:3,2008-09-29T17:18:00Z,29.6619,-84.3731,66.84,1111122 
COAPS,ioos:station:COAPS:N7:3,2008-09-29T17:19:00Z,29.6619,-84.3731,66.81,1111122 
COAPS,ioos:station:COAPS:N7:3,2008-09-29T17:20:00Z,29.6619,-84.3731,67.07,1111122 
COAPS,ioos:station:COAPS:N7:3,2008-09-29T17:21:00Z,29.6619,-84.3731,67.63,1111122 
COAPS,ioos:station:COAPS:N7:3,2008-09-29T17:22:00Z,29.6619,-84.3731,67.54,1111122 
COAPS,ioos:station:COAPS:N7:3,2008-09-29T17:23:00Z,29.6619,-84.3731,66.82,1111122 
COAPS,ioos:station:COAPS:N7:3,2008-09-29T17:24:00Z,29.6619,-84.3731,66.14,1111122 
COAPS,ioos:station:COAPS:N7:3,2008-09-29T17:25:00Z,29.6619,-84.3731,64.8,1111122 
COAPS,ioos:station:COAPS:N7:3,2008-09-29T17:26:00Z,29.6619,-84.3731,64.57,1111122 
COAPS,ioos:station:COAPS:N7:3,2008-09-29T17:27:00Z,29.6619,-84.3731,65.97,1111122 
COAPS,ioos:station:COAPS:N7:3,2008-09-29T17:28:00Z,29.6619,-84.3731,68.16,1111122 
COAPS,ioos:station:COAPS:N7:3,2008-09-29T17:29:00Z,29.6619,-84.3731,68.39,1111122 
COAPS,ioos:station:COAPS:N7:3,2008-09-29T17:30:00Z,29.6619,-84.3731,67.35,1111122 
COAPS,ioos:station:COAPS:N7:3,2008-09-29T17:31:00Z,29.6619,-84.3731,66.77,1111122 
COAPS,ioos:station:COAPS:N7:3,2008-09-29T17:32:00Z,29.6619,-84.3731,67.13,1111122 
COAPS,ioos:station:COAPS:N7:3,2008-09-29T17:33:00Z,29.6619,-84.3731,67.83,1111122 
COAPS,ioos:station:COAPS:N7:3,2008-09-29T17:34:00Z,29.6619,-84.3731,68.43,1111122 
COAPS,ioos:station:COAPS:N7:3,2008-09-29T17:35:00Z,29.6619,-84.3731,70.24,1111122 
COAPS,ioos:station:COAPS:N7:3,2008-09-29T17:36:00Z,29.6619,-84.3731,68.06,1111122 
COAPS,ioos:station:COAPS:N7:3,2008-09-29T17:37:00Z,29.6619,-84.3731,68.28,1111122 
COAPS,ioos:station:COAPS:N7:3,2008-09-29T17:38:00Z,29.6619,-84.3731,67.46,1111122 
COAPS,ioos:station:COAPS:N7:3,2008-09-29T17:39:00Z,29.6619,-84.3731,69.71,1111122 
COAPS,ioos:station:COAPS:N7:3,2008-09-29T17:40:00Z,29.6619,-84.3731,68.07,1111122 
COAPS,ioos:station:COAPS:N7:3,2008-09-29T17:41:00Z,29.6619,-84.3731,66.41,1111122 
COAPS,ioos:station:COAPS:N7:3,2008-09-29T17:42:00Z,29.6619,-84.3731,65.24,1111122 
COAPS,ioos:station:COAPS:N7:3,2008-09-29T17:43:00Z,29.6619,-84.3731,65.43,1111122 
COAPS,ioos:station:COAPS:N7:3,2008-09-29T17:44:00Z,29.6619,-84.3731,65.5,1111122 
COAPS,ioos:station:COAPS:N7:3,2008-09-29T17:45:00Z,29.6619,-84.3731,67.42,1111122 
COAPS,ioos:station:COAPS:N7:3,2008-09-29T17:46:00Z,29.6619,-84.3731,65.72,1111122 
COAPS,ioos:station:COAPS:N7:3,2008-09-29T17:47:00Z,29.6619,-84.3731,62.16,1111122 
COAPS,ioos:station:COAPS:N7:3,2008-09-29T17:48:00Z,29.6619,-84.3731,64.53,1111122 
COAPS,ioos:station:COAPS:N7:3,2008-09-29T17:49:00Z,29.6619,-84.3731,64.04,1111122 
COAPS,ioos:station:COAPS:N7:3,2008-09-29T17:50:00Z,29.6619,-84.3731,65.35,1111122 
COAPS,ioos:station:COAPS:N7:3,2008-09-29T17:51:00Z,29.6619,-84.3731,64.2,1111122 
COAPS,ioos:station:COAPS:N7:3,2008-09-29T17:52:00Z,29.6619,-84.3731,65.71,1111122 
COAPS,ioos:station:COAPS:N7:3,2008-09-29T17:53:00Z,29.6619,-84.3731,63.93,1111122 
COAPS,ioos:station:COAPS:N7:3,2008-09-29T17:54:00Z,29.6619,-84.3731,63.78,1111122 
COAPS,ioos:station:COAPS:N7:3,2008-09-29T17:55:00Z,29.6619,-84.3731,62.6,1111122 
COAPS,ioos:station:COAPS:N7:3,2008-09-29T17:56:00Z,29.6619,-84.3731,64.12,1111122 
COAPS,ioos:station:COAPS:N7:3,2008-09-29T17:57:00Z,29.6619,-84.3731,64.29,1111122 
COAPS,ioos:station:COAPS:N7:3,2008-09-29T17:58:00Z,29.6619,-84.3731,63.16,1111122 
COAPS,ioos:station:COAPS:N7:3,2008-09-29T17:59:00Z,29.6619,-84.3731,64.46,1111122 
COAPS,ioos:station:COAPS:N7:3,2008-09-29T18:00:00Z,29.6619,-84.3731,64.42,1111122 
COAPS,ioos:station:COAPS:N7:3,2008-09-29T18:01:00Z,29.6619,-84.3731,62.65,1111122 
COAPS,ioos:station:COAPS:N7:3,2008-09-29T18:02:00Z,29.6619,-84.3731,63.85,1111122 
COAPS,ioos:station:COAPS:N7:3,2008-09-29T18:03:00Z,29.6619,-84.3731,63.62,1111122 
COAPS,ioos:station:COAPS:N7:3,2008-09-29T18:04:00Z,29.6619,-84.3731,63.59,1111122 
COAPS,ioos:station:COAPS:N7:3,2008-09-29T18:05:00Z,29.6619,-84.3731,65.44,1111122 
COAPS,ioos:station:COAPS:N7:3,2008-09-29T18:06:00Z,29.6619,-84.3731,64.85,1111122 
COAPS,ioos:station:COAPS:N7:3,2008-09-29T18:07:00Z,29.6619,-84.3731,65.46,1111122 
COAPS,ioos:station:COAPS:N7:3,2008-09-29T18:08:00Z,29.6619,-84.3731,62.85,1111122 
COAPS,ioos:station:COAPS:N7:3,2008-09-29T18:09:00Z,29.6619,-84.3731,62.64,1111122 
COAPS,ioos:station:COAPS:N7:3,2008-09-29T18:10:00Z,29.6619,-84.3731,64.2,1111122 
COAPS,ioos:station:COAPS:N7:3,2008-09-29T18:11:00Z,29.6619,-84.3731,64.02,1111122 
COAPS,ioos:station:COAPS:N7:3,2008-09-29T18:12:00Z,29.6619,-84.3731,64.02,1111122 
COAPS,ioos:station:COAPS:N7:3,2008-09-29T18:13:00Z,29.6619,-84.3731,64.06,1111122 
COAPS,ioos:station:COAPS:N7:3,2008-09-29T18:14:00Z,29.6619,-84.3731,66.37,1111122 
COAPS,ioos:station:COAPS:N7:3,2008-09-29T18:15:00Z,29.6619,-84.3731,64.52,1111122 
COAPS,ioos:station:COAPS:N7:3,2008-09-29T18:16:00Z,29.6619,-84.3731,64.18,1111122 
COAPS,ioos:station:COAPS:N7:3,2008-09-29T18:17:00Z,29.6619,-84.3731,63.22,1111122 
COAPS,ioos:station:COAPS:N7:3,2008-09-29T18:18:00Z,29.6619,-84.3731,62.94,1111122 
COAPS,ioos:station:COAPS:N7:3,2008-09-29T18:19:00Z,29.6619,-84.3731,61.82,1111122 
COAPS,ioos:station:COAPS:N7:3,2008-09-29T18:20:00Z,29.6619,-84.3731,60.39,1111122 
COAPS,ioos:station:COAPS:N7:3,2008-09-29T18:21:00Z,29.6619,-84.3731,58.56,1111122 
COAPS,ioos:station:COAPS:N7:3,2008-09-29T18:22:00Z,29.6619,-84.3731,60.05,1111122 
COAPS,ioos:station:COAPS:N7:3,2008-09-29T18:23:00Z,29.6619,-84.3731,60.34,1111122 
COAPS,ioos:station:COAPS:N7:3,2008-09-29T18:24:00Z,29.6619,-84.3731,60.67,1111122 
COAPS,ioos:station:COAPS:N7:3,2008-09-29T18:25:00Z,29.6619,-84.3731,62.04,1111122 
COAPS,ioos:station:COAPS:N7:3,2008-09-29T18:26:00Z,29.6619,-84.3731,62.65,1111122 
COAPS,ioos:station:COAPS:N7:3,2008-09-29T18:27:00Z,29.6619,-84.3731,61.22,1111122 
COAPS,ioos:station:COAPS:N7:3,2008-09-29T18:28:00Z,29.6619,-84.3731,60.81,1111122 
COAPS,ioos:station:COAPS:N7:3,2008-09-29T18:29:00Z,29.6619,-84.3731,60.83,1111122 
COAPS,ioos:station:COAPS:N7:3,2008-09-29T18:30:00Z,29.6619,-84.3731,62.61,1111122 
COAPS,ioos:station:COAPS:N7:3,2008-09-29T18:31:00Z,29.6619,-84.3731,61.85,1111122 
COAPS,ioos:station:COAPS:N7:3,2008-09-29T18:32:00Z,29.6619,-84.3731,60.29,1111122 
COAPS,ioos:station:COAPS:N7:3,2008-09-29T18:33:00Z,29.6619,-84.3731,61.37,1111122 
COAPS,ioos:station:COAPS:N7:3,2008-09-29T18:34:00Z,29.6619,-84.3731,59.98,1111122 
COAPS,ioos:station:COAPS:N7:3,2008-09-29T18:35:00Z,29.6619,-84.3731,58.99,1111122 
COAPS,ioos:station:COAPS:N7:3,2008-09-29T18:36:00Z,29.6619,-84.3731,58.65,1111122 
COAPS,ioos:station:COAPS:N7:3,2008-09-29T18:37:00Z,29.6619,-84.3731,61.53,1111122 
COAPS,ioos:station:COAPS:N7:3,2008-09-29T18:38:00Z,29.6619,-84.3731,60.39,1111122 
COAPS,ioos:station:COAPS:N7:3,2008-09-29T18:39:00Z,29.6619,-84.3731,59.51,1111122 
COAPS,ioos:station:COAPS:N7:3,2008-09-29T18:40:00Z,29.6619,-84.3731,58.68,1111122 
COAPS,ioos:station:COAPS:N7:3,2008-09-29T18:41:00Z,29.6619,-84.3731,59.31,1111122 
COAPS,ioos:station:COAPS:N7:3,2008-09-29T18:42:00Z,29.6619,-84.3731,60.65,1111122 
COAPS,ioos:station:COAPS:N7:3,2008-09-29T18:43:00Z,29.6619,-84.3731,55.97,1111122 
COAPS,ioos:station:COAPS:N7:3,2008-09-29T18:44:00Z,29.6619,-84.3731,57.27,1111122 
COAPS,ioos:station:COAPS:N7:3,2008-09-29T18:45:00Z,29.6619,-84.3731,57.98,1111122 
COAPS,ioos:station:COAPS:N7:3,2008-09-29T18:46:00Z,29.6619,-84.3731,60.5,1111122 
COAPS,ioos:station:COAPS:N7:3,2008-09-29T18:47:00Z,29.6619,-84.3731,60.32,1111122 
COAPS,ioos:station:COAPS:N7:3,2008-09-29T18:48:00Z,29.6619,-84.3731,59.98,1111122 
COAPS,ioos:station:COAPS:N7:3,2008-09-29T18:49:00Z,29.6619,-84.3731,57.8,1111122 
COAPS,ioos:station:COAPS:N7:3,2008-09-29T18:50:00Z,29.6619,-84.3731,58.93,1111122 
COAPS,ioos:station:COAPS:N7:3,2008-09-29T18:51:00Z,29.6619,-84.3731,59.65,1111122 
COAPS,ioos:station:COAPS:N7:3,2008-09-29T18:52:00Z,29.6619,-84.3731,59.99,1111122 
COAPS,ioos:station:COAPS:N7:3,2008-09-29T18:53:00Z,29.6619,-84.3731,61.74,1111122 
COAPS,ioos:station:COAPS:N7:3,2008-09-29T18:54:00Z,29.6619,-84.3731,59.06,1111122 
COAPS,ioos:station:COAPS:N7:3,2008-09-29T18:55:00Z,29.6619,-84.3731,61.03,1111122 
COAPS,ioos:station:COAPS:N7:3,2008-09-29T18:56:00Z,29.6619,-84.3731,60.42,1111122 
COAPS,ioos:station:COAPS:N7:3,2008-09-29T18:57:00Z,29.6619,-84.3731,58.54,1111122 
COAPS,ioos:station:COAPS:N7:3,2008-09-29T18:58:00Z,29.6619,-84.3731,59.03,1111122 
COAPS,ioos:station:COAPS:N7:3,2008-09-29T18:59:00Z,29.6619,-84.3731,61.15,1111122 
COAPS,ioos:station:COAPS:N7:3,2008-09-29T19:00:00Z,29.6619,-84.3731,60.08,1111122 
COAPS,ioos:station:COAPS:N7:3,2008-09-29T19:01:00Z,29.6619,-84.3731,60.03,1111122 
COAPS,ioos:station:COAPS:N7:3,2008-09-29T19:02:00Z,29.6619,-84.3731,58.28,1111122 
COAPS,ioos:station:COAPS:N7:3,2008-09-29T19:03:00Z,29.6619,-84.3731,57.28,1111122 
COAPS,ioos:station:COAPS:N7:3,2008-09-29T19:04:00Z,29.6619,-84.3731,57.81,1111122 
COAPS,ioos:station:COAPS:N7:3,2008-09-29T19:05:00Z,29.6619,-84.3731,57.09,1111122 
COAPS,ioos:station:COAPS:N7:3,2008-09-29T19:06:00Z,29.6619,-84.3731,56.86,1111122 
COAPS,ioos:station:COAPS:N7:3,2008-09-29T19:07:00Z,29.6619,-84.3731,58.76,1111122 
COAPS,ioos:station:COAPS:N7:3,2008-09-29T19:08:00Z,29.6619,-84.3731,60.29,1111122 
COAPS,ioos:station:COAPS:N7:3,2008-09-29T19:09:00Z,29.6619,-84.3731,58.3,1111122 
COAPS,ioos:station:COAPS:N7:3,2008-09-29T19:10:00Z,29.6619,-84.3731,61.08,1111122 
COAPS,ioos:station:COAPS:N7:3,2008-09-29T19:11:00Z,29.6619,-84.3731,55.33,1111122 
COAPS,ioos:station:COAPS:N7:3,2008-09-29T19:12:00Z,29.6619,-84.3731,59.1,1111122 
COAPS,ioos:station:COAPS:N7:3,2008-09-29T19:13:00Z,29.6619,-84.3731,60.29,1111122 
COAPS,ioos:station:COAPS:N7:3,2008-09-29T19:14:00Z,29.6619,-84.3731,57.04,1111122 
COAPS,ioos:station:COAPS:N7:3,2008-09-29T19:15:00Z,29.6619,-84.3731,55.43,1111122 
COAPS,ioos:station:COAPS:N7:3,2008-09-29T19:16:00Z,29.6619,-84.3731,58.9,1111122 
COAPS,ioos:station:COAPS:N7:3,2008-09-29T19:17:00Z,29.6619,-84.3731,57.56,1111122 
COAPS,ioos:station:COAPS:N7:3,2008-09-29T19:18:00Z,29.6619,-84.3731,56.59,1111122 
COAPS,ioos:station:COAPS:N7:3,2008-09-29T19:19:00Z,29.6619,-84.3731,57.6,1111122 
COAPS,ioos:station:COAPS:N7:3,2008-09-29T19:20:00Z,29.6619,-84.3731,58.1,1111122 
COAPS,ioos:station:COAPS:N7:3,2008-09-29T19:21:00Z,29.6619,-84.3731,60.44,1111122 
COAPS,ioos:station:COAPS:N7:3,2008-09-29T19:22:00Z,29.6619,-84.3731,56.51,1111122 
COAPS,ioos:station:COAPS:N7:3,2008-09-29T19:23:00Z,29.6619,-84.3731,60.0,1111122 
COAPS,ioos:station:COAPS:N7:3,2008-09-29T19:24:00Z,29.6619,-84.3731,58.66,1111122 
COAPS,ioos:station:COAPS:N7:3,2008-09-29T19:25:00Z,29.6619,-84.3731,56.2,1111122 
COAPS,ioos:station:COAPS:N7:3,2008-09-29T19:26:00Z,29.6619,-84.3731,56.83,1111122 
COAPS,ioos:station:COAPS:N7:3,2008-09-29T19:27:00Z,29.6619,-84.3731,56.28,1111122 
COAPS,ioos:station:COAPS:N7:3,2008-09-29T19:28:00Z,29.6619,-84.3731,56.44,1111122 
COAPS,ioos:station:COAPS:N7:3,2008-09-29T19:29:00Z,29.6619,-84.3731,55.65,1111122 
COAPS,ioos:station:COAPS:N7:3,2008-09-29T19:30:00Z,29.6619,-84.3731,58.04,1111122 
COAPS,ioos:station:COAPS:N7:3,2008-09-29T19:31:00Z,29.6619,-84.3731,58.31,1111122 
COAPS,ioos:station:COAPS:N7:3,2008-09-29T19:32:00Z,29.6619,-84.3731,56.67,1111122 
COAPS,ioos:station:COAPS:N7:3,2008-09-29T19:33:00Z,29.6619,-84.3731,55.17,1111122 
COAPS,ioos:station:COAPS:N7:3,2008-09-29T19:34:00Z,29.6619,-84.3731,58.13,1111122 
COAPS,ioos:station:COAPS:N7:3,2008-09-29T19:35:00Z,29.6619,-84.3731,57.16,1111122 
COAPS,ioos:station:COAPS:N7:3,2008-09-29T19:36:00Z,29.6619,-84.3731,57.2,1111122 
COAPS,ioos:station:COAPS:N7:3,2008-09-29T19:37:00Z,29.6619,-84.3731,56.44,1111122 
COAPS,ioos:station:COAPS:N7:3,2008-09-29T19:38:00Z,29.6619,-84.3731,56.88,1111122 
COAPS,ioos:station:COAPS:N7:3,2008-09-29T19:39:00Z,29.6619,-84.3731,53.71,1111122 
COAPS,ioos:station:COAPS:N7:3,2008-09-29T19:40:00Z,29.6619,-84.3731,56.6,1111122 
COAPS,ioos:station:COAPS:N7:3,2008-09-29T19:41:00Z,29.6619,-84.3731,56.67,1111122 
COAPS,ioos:station:COAPS:N7:3,2008-09-29T19:42:00Z,29.6619,-84.3731,56.39,1111122 
COAPS,ioos:station:COAPS:N7:3,2008-09-29T19:43:00Z,29.6619,-84.3731,56.42,1111122 
COAPS,ioos:station:COAPS:N7:3,2008-09-29T19:44:00Z,29.6619,-84.3731,55.83,1111122 
COAPS,ioos:station:COAPS:N7:3,2008-09-29T19:45:00Z,29.6619,-84.3731,55.4,1111122 
COAPS,ioos:station:COAPS:N7:3,2008-09-29T19:46:00Z,29.6619,-84.3731,57.13,1111122 
COAPS,ioos:station:COAPS:N7:3,2008-09-29T19:47:00Z,29.6619,-84.3731,56.43,1111122 
COAPS,ioos:station:COAPS:N7:3,2008-09-29T19:48:00Z,29.6619,-84.3731,53.42,1111122 
COAPS,ioos:station:COAPS:N7:3,2008-09-29T19:49:00Z,29.6619,-84.3731,56.25,1111122 
COAPS,ioos:station:COAPS:N7:3,2008-09-29T19:50:00Z,29.6619,-84.3731,56.06,1111122 
COAPS,ioos:station:COAPS:N7:3,2008-09-29T19:51:00Z,29.6619,-84.3731,55.53,1111122 
COAPS,ioos:station:COAPS:N7:3,2008-09-29T19:52:00Z,29.6619,-84.3731,54.3,1111122 
COAPS,ioos:station:COAPS:N7:3,2008-09-29T19:53:00Z,29.6619,-84.3731,55.9,1111122 
COAPS,ioos:station:COAPS:N7:3,2008-09-29T19:54:00Z,29.6619,-84.3731,55.61,1111122 
COAPS,ioos:station:COAPS:N7:3,2008-09-29T19:55:00Z,29.6619,-84.3731,56.41,1111122 
COAPS,ioos:station:COAPS:N7:3,2008-09-29T19:56:00Z,29.6619,-84.3731,55.37,1111122 
COAPS,ioos:station:COAPS:N7:3,2008-09-29T19:57:00Z,29.6619,-84.3731,55.0,1111122 
COAPS,ioos:station:COAPS:N7:3,2008-09-29T19:58:00Z,29.6619,-84.3731,54.29,1111122 
COAPS,ioos:station:COAPS:N7:3,2008-09-29T19:59:00Z,29.6619,-84.3731,54.17,1111122 
COAPS,ioos:station:COAPS:N7:3,2008-09-29T20:00:00Z,29.6619,-84.3731,54.94,1111122 
COAPS,ioos:station:COAPS:N7:3,2008-09-29T20:01:00Z,29.6619,-84.3731,55.08,1111122 
COAPS,ioos:station:COAPS:N7:3,2008-09-29T20:02:00Z,29.6619,-84.3731,54.77,1111122 
COAPS,ioos:station:COAPS:N7:3,2008-09-29T20:03:00Z,29.6619,-84.3731,55.16,1111122 
COAPS,ioos:station:COAPS:N7:3,2008-09-29T20:04:00Z,29.6619,-84.3731,55.98,1111122 
COAPS,ioos:station:COAPS:N7:3,2008-09-29T20:05:00Z,29.6619,-84.3731,58.55,1111122 
COAPS,ioos:station:COAPS:N7:3,2008-09-29T20:06:00Z,29.6619,-84.3731,57.8,1111122 
COAPS,ioos:station:COAPS:N7:3,2008-09-29T20:07:00Z,29.6619,-84.3731,55.59,1111122 
COAPS,ioos:station:COAPS:N7:3,2008-09-29T20:08:00Z,29.6619,-84.3731,55.21,1111122 
COAPS,ioos:station:COAPS:N7:3,2008-09-29T20:09:00Z,29.6619,-84.3731,55.1,1111122 
COAPS,ioos:station:COAPS:N7:3,2008-09-29T20:10:00Z,29.6619,-84.3731,55.71,1111122 
COAPS,ioos:station:COAPS:N7:3,2008-09-29T20:11:00Z,29.6619,-84.3731,54.07,1111122 
COAPS,ioos:station:COAPS:N7:3,2008-09-29T20:12:00Z,29.6619,-84.3731,56.09,1111122 
COAPS,ioos:station:COAPS:N7:3,2008-09-29T20:13:00Z,29.6619,-84.3731,54.79,1111122 
COAPS,ioos:station:COAPS:N7:3,2008-09-29T20:14:00Z,29.6619,-84.3731,55.35,1111122 
COAPS,ioos:station:COAPS:N7:3,2008-09-29T20:15:00Z,29.6619,-84.3731,56.04,1111122 
COAPS,ioos:station:COAPS:N7:3,2008-09-29T20:16:00Z,29.6619,-84.3731,58.85,1111122 
COAPS,ioos:station:COAPS:N7:3,2008-09-29T20:17:00Z,29.6619,-84.3731,56.86,1111122 
COAPS,ioos:station:COAPS:N7:3,2008-09-29T20:18:00Z,29.6619,-84.3731,57.34,1111122 
COAPS,ioos:station:COAPS:N7:3,2008-09-29T20:19:00Z,29.6619,-84.3731,58.11,1111122 
COAPS,ioos:station:COAPS:N7:3,2008-09-29T20:20:00Z,29.6619,-84.3731,56.04,1111122 
COAPS,ioos:station:COAPS:N7:3,2008-09-29T20:21:00Z,29.6619,-84.3731,58.46,1111122 
COAPS,ioos:station:COAPS:N7:3,2008-09-29T20:22:00Z,29.6619,-84.3731,56.07,1111122 
COAPS,ioos:station:COAPS:N7:3,2008-09-29T20:23:00Z,29.6619,-84.3731,55.58,1111122 
COAPS,ioos:station:COAPS:N7:3,2008-09-29T20:24:00Z,29.6619,-84.3731,55.85,1111122 
COAPS,ioos:station:COAPS:N7:3,2008-09-29T20:25:00Z,29.6619,-84.3731,58.82,1111122 
COAPS,ioos:station:COAPS:N7:3,2008-09-29T20:26:00Z,29.6619,-84.3731,56.62,1111122 
COAPS,ioos:station:COAPS:N7:3,2008-09-29T20:27:00Z,29.6619,-84.3731,54.92,1111122 
COAPS,ioos:station:COAPS:N7:3,2008-09-29T20:28:00Z,29.6619,-84.3731,54.33,1111122 
COAPS,ioos:station:COAPS:N7:3,2008-09-29T20:29:00Z,29.6619,-84.3731,54.66,1111122 
COAPS,ioos:station:COAPS:N7:3,2008-09-29T20:30:00Z,29.6619,-84.3731,54.17,1111122 
COAPS,ioos:station:COAPS:N7:3,2008-09-29T20:31:00Z,29.6619,-84.3731,55.26,1111122 
COAPS,ioos:station:COAPS:N7:3,2008-09-29T20:32:00Z,29.6619,-84.3731,55.93,1111122 
COAPS,ioos:station:COAPS:N7:3,2008-09-29T20:33:00Z,29.6619,-84.3731,55.59,1111122 
COAPS,ioos:station:COAPS:N7:3,2008-09-29T20:34:00Z,29.6619,-84.3731,55.9,1111122 
COAPS,ioos:station:COAPS:N7:3,2008-09-29T20:35:00Z,29.6619,-84.3731,54.78,1111122 
COAPS,ioos:station:COAPS:N7:3,2008-09-29T20:36:00Z,29.6619,-84.3731,54.84,1111122 
COAPS,ioos:station:COAPS:N7:3,2008-09-29T20:37:00Z,29.6619,-84.3731,54.62,1111122 
COAPS,ioos:station:COAPS:N7:3,2008-09-29T20:38:00Z,29.6619,-84.3731,55.27,1111122 
COAPS,ioos:station:COAPS:N7:3,2008-09-29T20:39:00Z,29.6619,-84.3731,53.93,1111122 
COAPS,ioos:station:COAPS:N7:3,2008-09-29T20:40:00Z,29.6619,-84.3731,56.18,1111122 
COAPS,ioos:station:COAPS:N7:3,2008-09-29T20:41:00Z,29.6619,-84.3731,53.57,1111122 
COAPS,ioos:station:COAPS:N7:3,2008-09-29T20:42:00Z,29.6619,-84.3731,55.43,1111122 
COAPS,ioos:station:COAPS:N7:3,2008-09-29T20:43:00Z,29.6619,-84.3731,54.89,1111122 
COAPS,ioos:station:COAPS:N7:3,2008-09-29T20:44:00Z,29.6619,-84.3731,54.04,1111122 
COAPS,ioos:station:COAPS:N7:3,2008-09-29T20:45:00Z,29.6619,-84.3731,55.0,1111122 
COAPS,ioos:station:COAPS:N7:3,2008-09-29T20:46:00Z,29.6619,-84.3731,54.85,1111122 
COAPS,ioos:station:COAPS:N7:3,2008-09-29T20:47:00Z,29.6619,-84.3731,54.77,1111122 
COAPS,ioos:station:COAPS:N7:3,2008-09-29T20:48:00Z,29.6619,-84.3731,54.54,1111122 
COAPS,ioos:station:COAPS:N7:3,2008-09-29T20:49:00Z,29.6619,-84.3731,55.97,1111122 
COAPS,ioos:station:COAPS:N7:3,2008-09-29T20:50:00Z,29.6619,-84.3731,56.1,1111122 
COAPS,ioos:station:COAPS:N7:3,2008-09-29T20:51:00Z,29.6619,-84.3731,55.74,1111122 
COAPS,ioos:station:COAPS:N7:3,2008-09-29T20:52:00Z,29.6619,-84.3731,57.03,1111122 
COAPS,ioos:station:COAPS:N7:3,2008-09-29T20:53:00Z,29.6619,-84.3731,56.18,1111122 
COAPS,ioos:station:COAPS:N7:3,2008-09-29T20:54:00Z,29.6619,-84.3731,55.71,1111122 
COAPS,ioos:station:COAPS:N7:3,2008-09-29T20:55:00Z,29.6619,-84.3731,53.69,1111122 
COAPS,ioos:station:COAPS:N7:3,2008-09-29T20:56:00Z,29.6619,-84.3731,55.61,1111122 
COAPS,ioos:station:COAPS:N7:3,2008-09-29T20:57:00Z,29.6619,-84.3731,56.77,1111122 
COAPS,ioos:station:COAPS:N7:3,2008-09-29T20:58:00Z,29.6619,-84.3731,56.76,1111122 
COAPS,ioos:station:COAPS:N7:3,2008-09-29T20:59:00Z,29.6619,-84.3731,56.36,1111122 
COAPS,ioos:station:COAPS:N7:3,2008-09-29T21:00:00Z,29.6619,-84.3731,55.71,1111122 
COAPS,ioos:station:COAPS:N7:3,2008-09-29T21:01:00Z,29.6619,-84.3731,56.88,1111122 
COAPS,ioos:station:COAPS:N7:3,2008-09-29T21:02:00Z,29.6619,-84.3731,57.08,1111122 
COAPS,ioos:station:COAPS:N7:3,2008-09-29T21:03:00Z,29.6619,-84.3731,54.88,1111122 
COAPS,ioos:station:COAPS:N7:3,2008-09-29T21:04:00Z,29.6619,-84.3731,56.51,1111122 
COAPS,ioos:station:COAPS:N7:3,2008-09-29T21:05:00Z,29.6619,-84.3731,56.06,1111122 
COAPS,ioos:station:COAPS:N7:3,2008-09-29T21:06:00Z,29.6619,-84.3731,55.78,1111122 
COAPS,ioos:station:COAPS:N7:3,2008-09-29T21:07:00Z,29.6619,-84.3731,57.29,1111122 
COAPS,ioos:station:COAPS:N7:3,2008-09-29T21:08:00Z,29.6619,-84.3731,56.16,1111122 
COAPS,ioos:station:COAPS:N7:3,2008-09-29T21:09:00Z,29.6619,-84.3731,56.44,1111122 
COAPS,ioos:station:COAPS:N7:3,2008-09-29T21:10:00Z,29.6619,-84.3731,54.14,1111122 
COAPS,ioos:station:COAPS:N7:3,2008-09-29T21:11:00Z,29.6619,-84.3731,54.73,1111122 
COAPS,ioos:station:COAPS:N7:3,2008-09-29T21:12:00Z,29.6619,-84.3731,55.09,1111122 
COAPS,ioos:station:COAPS:N7:3,2008-09-29T21:13:00Z,29.6619,-84.3731,55.19,1111122 
COAPS,ioos:station:COAPS:N7:3,2008-09-29T21:14:00Z,29.6619,-84.3731,54.62,1111122 
COAPS,ioos:station:COAPS:N7:3,2008-09-29T21:15:00Z,29.6619,-84.3731,56.34,1111122 
COAPS,ioos:station:COAPS:N7:3,2008-09-29T21:16:00Z,29.6619,-84.3731,54.69,1111122 
COAPS,ioos:station:COAPS:N7:3,2008-09-29T21:17:00Z,29.6619,-84.3731,56.66,1111122 
COAPS,ioos:station:COAPS:N7:3,2008-09-29T21:18:00Z,29.6619,-84.3731,54.06,1111122 
COAPS,ioos:station:COAPS:N7:3,2008-09-29T21:19:00Z,29.6619,-84.3731,54.25,1111122 
COAPS,ioos:station:COAPS:N7:3,2008-09-29T21:20:00Z,29.6619,-84.3731,55.46,1111122 
COAPS,ioos:station:COAPS:N7:3,2008-09-29T21:21:00Z,29.6619,-84.3731,54.58,1111122 
COAPS,ioos:station:COAPS:N7:3,2008-09-29T21:22:00Z,29.6619,-84.3731,56.97,1111122 
COAPS,ioos:station:COAPS:N7:3,2008-09-29T21:23:00Z,29.6619,-84.3731,55.45,1111122 
COAPS,ioos:station:COAPS:N7:3,2008-09-29T21:24:00Z,29.6619,-84.3731,56.28,1111122 
COAPS,ioos:station:COAPS:N7:3,2008-09-29T21:25:00Z,29.6619,-84.3731,54.76,1111122 
COAPS,ioos:station:COAPS:N7:3,2008-09-29T21:26:00Z,29.6619,-84.3731,53.74,1111122 
COAPS,ioos:station:COAPS:N7:3,2008-09-29T21:27:00Z,29.6619,-84.3731,53.54,1111122 
COAPS,ioos:station:COAPS:N7:3,2008-09-29T21:28:00Z,29.6619,-84.3731,54.29,1111122 
COAPS,ioos:station:COAPS:N7:3,2008-09-29T21:29:00Z,29.6619,-84.3731,55.43,1111122 
COAPS,ioos:station:COAPS:N7:3,2008-09-29T21:30:00Z,29.6619,-84.3731,56.51,1111122 
COAPS,ioos:station:COAPS:N7:3,2008-09-29T21:31:00Z,29.6619,-84.3731,57.82,1111122 